Hourly Data Report for April 16, 2003

SHERBROOKE A
QUEBEC

45°26'00.000" N
71°41'00.000" W
241.40 m
7028124
71610
YSC

Download Data

Hourly Data (April 2003)
Hourly Data Report for April 16, 2003
TIME
LST
Temp Definition
°C
Dew Point Definition
°C
Rel Hum Definition
%
Precip. Amount Definition
mm

Wind Dir Definition
10's deg

Wind Spd Definition
km/h
Visibility Definition
km
Stn Press Definition
kPa
Hmdx Definition


Wind Chill Definition


Weather Definition


00:00 10.7 10.5 99   26 7 1.1 97.72     Rain
01:00 8.0 7.9 99   27 11 2.9 97.68     Drizzle
02:00 6.0 5.4 96   31 7 12.9 97.66      
03:00 5.2 4.4 95   29 9 11.3 97.71     Rain
04:00 4.2 3.4 95   30 9 15.0 97.77      
05:00 3.2 2.6 96   31 6 4.8 97.94     Rain
06:00 2.5 2.0 96   33 7 4.8 98.03     Rain
07:00 1.8 1.2 96   31 13 4.8 98.14     Rain, Drizzle, Fog
08:00 0.7 -0.4 92   31 13 24.1 98.17     Cloudy
09:00 -0.1 -3.5 78   31 17 24.1 98.27   -5 Cloudy
10:00 -0.6 -6.2 66   31 15 24.1 98.44   -5 Cloudy
11:00 -0.2 -6.0 65   30 17 24.1 98.53   -5 Cloudy
12:00 0.4 -6.4 60   28 19 24.1 98.54     Cloudy
13:00 1.6 -7.0 53   29 19 24.1 98.63     Cloudy
14:00 2.7 -7.1 48   29 32 24.1 98.67     Mostly Cloudy
15:00 1.3 -11.4 38   30 30 24.1 98.78     Mostly Cloudy
16:00 0.9 -13.0 35   30 24 24.1 98.89     Mostly Cloudy
17:00 -0.9 -14.9 34   32 26 15.0 99.04   -7  
18:00 -2.1 -15.6 35   31 17 15.0 99.17   -7  
19:00 -3.0 -16.5 34   31 19 15.0 99.27   -9  
20:00 -3.9 -18.0 32   33 19 15.0 99.39   -10  
21:00 -4.8 -18.4 34   33 13 15.0 99.46   -10  
22:00 -5.6 -17.9 37   33 13 15.0 99.53   -11  
23:00 -6.4 -18.7 37   35 13 15.0 99.63   -12  

Notes on Data Quality.

Legend

  • E = Estimated
  • M = Missing
  • NA = Not Available*
  • [empty] = Indicates an unobserved value
Date modified: